FENGYUN 3D (43010 NORAD) Tracking and Keplerian Element Data

This shows tracking and keplerian element data for the satellite.

Feedback or suggestion? Click here.




ElementValue
Catalog43010
NameFENGYUN 3D
Epoch Orbit19928
Epoch Day262.15393877
Epoch Year2021
RAAN203.4392
Inclination98.7933
Eccentricity0.0001023
Argument of Perigee152.7502
Mean Anonmoly207.3732
Mean Motion14.19777109
Decay Rate7E-08
L11 43010U 17072A 21262.15393877 .00000007 00000-0 24372-4 0 9990
L22 43010 98.7933 203.4392 0001023 152.7502 207.3732 14.19777109199289

Live tracking and technical data element details for FENGYUN 3D (NORAD 43010). FENGYUN 3D can be tracked NOW for your location showing map with azimuth and elevation plus other details from your city location.

Track the satellite on the map from your city or location and see movement details for azimuth, elevation, latitude, longitude, range, height, and movement on the map or in text.







IsCatalogInMostPopularTable: catalog: 43010, numindb: 605
Update: records affected: 1



GetName: 43010 FENGYUN 3D

Hit Count: updated at: Sat, 25 Sep 2021 23:43:10 GMT